Location: Nitra
(0.0000°N, 18.0833°E)
Time: 18:00:30
(UTC+02:00)

A-11 Canister half - Pass Details

Date: 04 April 2023
Orbit: 1513 x 1686 km, 47.2° (Epoch: 02 June)

Event Time Altitude Azimuth Distance (km) Brightness Sun altitude
Exits shadow 04:21:15 62° 347° (NNW) 1,845 9.2 -37.2°
Maximum altitude 04:23:14 77° 51° (NE) 1,702 9.1 -36.7°
Drops below altitude 10° 04:33:09 10° 135° (SE) 3,859 11.5 -34.2°
Sets 04:36:14 0° 137° (SE) 4,825 12.1 -33.5°
